| time (UTC) | temp F | wind direction | speed MPH | gust MPH | rain 1hr in | rain 24hr in | rain mn in | humidity % | barometer mb |
| 20260906210108 | 88 | 1 | 5.0 | 13.0 | 0.00 | 0.00 | 0.00 | 36 | 1018.9 |
| 20260906204549 | 86 | 1 | 4.0 | 11.0 | 0.00 | 0.00 | 0.00 | 39 | 1018.9 |
| 20260906203053 | 85 | 1 | 7.0 | 12.0 | 0.00 | 0.00 | 0.00 | 41 | 1019.0 |
| 20260906201633 | 86 | 1 | 7.0 | 12.0 | 0.00 | 0.00 | 0.00 | 41 | 1019.0 |
| 20260906200049 | 86 | 1 | 6.0 | 11.0 | 0.00 | 0.00 | 0.00 | 41 | 1019.0 |
| 20260906194604 | 87 | 1 | 4.0 | 11.0 | 0.00 | 0.00 | 0.00 | 39 | 1019.5 |
| 20260906193050 | 86 | 1 | 3.0 | 8.0 | 0.00 | 0.00 | 0.00 | 38 | 1019.8 |
| 20260906191605 | 86 | 1 | 2.0 | 8.0 | 0.00 | 0.00 | 0.00 | 38 | 1020.0 |
| 20260906190049 | 84 | 1 | 1.0 | 8.0 | 0.00 | 0.00 | 0.00 | 40 | 1020.2 |
| 20260906184548 | 87 | 1 | 2.0 | 6.0 | 0.00 | 0.00 | 0.00 | 38 | 1020.5 |
| 20260906183051 | 85 | 1 | 1.0 | 6.0 | 0.00 | 0.00 | 0.00 | 40 | 1020.9 |
| 20260906181609 | 85 | 1 | 1.0 | 6.0 | 0.00 | 0.00 | 0.00 | 40 | 1021.3 |
| 20260906180051 | 84 | 1 | 3.0 | 9.0 | 0.00 | 0.00 | 0.00 | 40 | 1021.4 |
| 20260906174546 | 81 | 1 | 5.0 | 12.0 | 0.00 | 0.00 | 0.00 | 46 | 1021.3 |
| 20260906173044 | 81 | 1 | 4.0 | 9.0 | 0.00 | 0.00 | 0.00 | 46 | 1021.8 |
| 20260906171553 | 80 | 360 | 3.0 | 8.0 | 0.00 | 0.00 | 0.00 | 50 | 1022.1 |
| 20260906170053 | 78 | 360 | 3.0 | 8.0 | 0.00 | 0.00 | 0.00 | 51 | 1021.8 |
| 20260906164551 | 77 | 360 | 4.0 | 9.0 | 0.00 | 0.00 | 0.00 | 55 | 1021.9 |
| 20260906163103 | 75 | 360 | 5.0 | 10.0 | 0.00 | 0.00 | 0.00 | 62 | 1022.0 |
| 20260906161601 | 74 | 360 | 6.0 | 10.0 | 0.00 | 0.00 | 0.00 | 66 | 1022.1 |
| 20260906160048 | 72 | 360 | 6.0 | 12.0 | 0.00 | 0.00 | 0.00 | 67 | 1022.2 |
| 20260906154552 | 73 | 360 | 6.0 | 12.0 | 0.00 | 0.00 | 0.00 | 67 | 1022.1 |
| 20260906153053 | 71 | 360 | 7.0 | 11.0 | 0.00 | 0.00 | 0.00 | 69 | 1022.3 |
| 20260906151552 | 70 | 360 | 6.0 | 11.0 | 0.00 | 0.00 | 0.00 | 72 | 1022.0 |
| 20260906150048 | 68 | 360 | 8.0 | 12.0 | 0.00 | 0.00 | 0.00 | 74 | 1022.3 |
| 20260906144545 | 67 | 360 | 8.0 | 13.0 | 0.00 | 0.00 | 0.00 | 78 | 1022.2 |
| 20260906143056 | 66 | 360 | 8.0 | 15.0 | 0.00 | 0.00 | 0.00 | 78 | 1022.1 |
| 20260906141553 | 64 | 360 | 9.0 | 14.0 | 0.00 | 0.00 | 0.00 | 82 | 1022.1 |
| 20260906140101 | 63 | 360 | 8.0 | 14.0 | 0.00 | 0.00 | 0.00 | 83 | 1022.2 |
| 20260906134549 | 62 | 360 | 8.0 | 12.0 | 0.00 | 0.00 | 0.00 | 83 | 1022.0 |
| 20260906133100 | 61 | 360 | 6.0 | 11.0 | 0.00 | 0.00 | 0.00 | 84 | 1021.9 |
| 20260906131552 | 60 | 360 | 7.0 | 11.0 | 0.00 | 0.00 | 0.00 | 84 | 1021.7 |
| 20260906130107 | 59 | 360 | 4.0 | 8.0 | 0.00 | 0.00 | 0.00 | 85 | 1021.6 |
| 20260906124546 | 59 | 360 | 5.0 | 11.0 | 0.00 | 0.00 | 0.00 | 84 | 1021.8 |
| 20260906123044 | 59 | 360 | 7.0 | 10.0 | 0.00 | 0.00 | 0.00 | 82 | 1021.5 |
| 20260906121606 | 59 | 360 | 4.0 | 7.0 | 0.00 | 0.00 | 0.00 | 80 | 1021.4 |
| 20260906120045 | 59 | 360 | 4.0 | 7.0 | 0.00 | 0.00 | 0.00 | 77 | 1021.5 |
| 20260906114604 | 59 | 360 | 5.0 | 6.0 | 0.00 | 0.00 | 0.00 | 75 | 1021.2 |
| 20260906113106 | 59 | 360 | 3.0 | 6.0 | 0.00 | 0.00 | 0.00 | 74 | 1021.0 |
| 20260906111553 | 60 | 360 | 1.0 | 4.0 | 0.00 | 0.00 | 0.00 | 72 | 1021.1 |
| 20260906110046 | 60 | 360 | 2.0 | 5.0 | 0.00 | 0.00 | 0.00 | 70 | 1021.0 |
| 20260906104544 | 60 | 0 | 0.0 | 3.0 | 0.00 | 0.00 | 0.00 | 69 | 1021.0 |
| 20260906103053 | 60 | 360 | 2.0 | 3.0 | 0.00 | 0.00 | 0.00 | 68 | 1021.2 |
| 20260906101554 | 61 | 360 | 0.0 | 3.0 | 0.00 | 0.00 | 0.00 | 67 | 1021.0 |
| 20260906100049 | 62 | 0 | 0.0 | 4.0 | 0.00 | 0.00 | 0.00 | 67 | 1021.1 |
| 20260906094549 | 62 | 360 | 2.0 | 3.0 | 0.00 | 0.00 | 0.00 | 67 | 1020.9 |
| 20260906093050 | 63 | 360 | 2.0 | 3.0 | 0.00 | 0.00 | 0.00 | 65 | 1021.0 |
| 20260906091549 | 64 | 0 | 1.0 | 4.0 | 0.00 | 0.00 | 0.00 | 63 | 1020.7 |
| 20260906090048 | 65 | 360 | 2.0 | 4.0 | 0.00 | 0.00 | 0.00 | 63 | 1020.4 |
| 20260906084552 | 65 | 360 | 4.0 | 6.0 | 0.00 | 0.00 | 0.00 | 62 | 1020.6 |
| 20260906083049 | 66 | 360 | 2.0 | 6.0 | 0.00 | 0.00 | 0.00 | 60 | 1021.0 |
| 20260906081544 | 67 | 0 | 0.0 | 4.0 | 0.00 | 0.00 | 0.00 | 57 | 1021.3 |
| 20260906080044 | 68 | 360 | 1.0 | 4.0 | 0.00 | 0.00 | 0.00 | 56 | 1021.2 |
| 20260906074555 | 68 | 360 | 1.0 | 7.0 | 0.00 | 0.00 | 0.00 | 54 | 1021.0 |
| 20260906073048 | 68 | 0 | 0.0 | 4.0 | 0.00 | 0.00 | 0.00 | 52 | 1020.8 |
| 20260906071543 | 68 | 360 | 3.0 | 7.0 | 0.00 | 0.00 | 0.00 | 51 | 1020.6 |
| 20260906070053 | 69 | 360 | 4.0 | 5.0 | 0.00 | 0.00 | 0.00 | 49 | 1020.2 |
| 20260906064546 | 71 | 360 | 4.0 | 6.0 | 0.00 | 0.00 | 0.00 | 48 | 1020.2 |
| 20260906063046 | 71 | 360 | 6.0 | 11.0 | 0.00 | 0.00 | 0.00 | 47 | 1020.4 |
| 20260906061543 | 72 | 360 | 7.0 | 11.0 | 0.00 | 0.00 | 0.00 | 48 | 1020.6 |
| 20260906060125 | 72 | 360 | 7.0 | 11.0 | 0.00 | 0.00 | 0.00 | 47 | 1020.6 |
| 20260906054545 | 71 | 360 | 8.0 | 12.0 | 0.00 | 0.00 | 0.00 | 49 | 1020.6 |
| 20260906053042 | 70 | 360 | 3.0 | 8.0 | 0.00 | 0.00 | 0.00 | 52 | 1020.6 |
| 20260906051542 | 70 | 360 | 5.0 | 7.0 | 0.00 | 0.00 | 0.00 | 51 | 1020.4 |
| 20260906050109 | 70 | 360 | 4.0 | 7.0 | 0.00 | 0.00 | 0.00 | 48 | 1020.7 |
| 20260906044546 | 71 | 360 | 3.0 | 6.0 | 0.00 | 0.00 | 0.00 | 46 | 1021.0 |
| 20260906043052 | 71 | 360 | 2.0 | 5.0 | 0.00 | 0.00 | 0.00 | 46 | 1020.8 |
| 20260906041550 | 72 | 360 | 4.0 | 7.0 | 0.00 | 0.00 | 0.00 | 44 | 1020.8 |
| 20260906040048 | 74 | 360 | 2.0 | 4.0 | 0.00 | 0.00 | 0.00 | 41 | 1020.6 |
| 20260906034558 | 76 | 360 | 1.0 | 4.0 | 0.00 | 0.00 | 0.00 | 40 | 1020.8 |
| 20260906033052 | 75 | 360 | 4.0 | 10.0 | 0.00 | 0.00 | 0.00 | 39 | 1020.5 |
| 20260906031609 | 76 | 360 | 3.0 | 8.0 | 0.00 | 0.00 | 0.00 | 36 | 1020.6 |
| 20260906030055 | 76 | 360 | 4.0 | 11.0 | 0.00 | 0.00 | 0.00 | 35 | 1020.0 |
| 20260906024556 | 77 | 360 | 8.0 | 13.0 | 0.00 | 0.00 | 0.00 | 34 | 1019.7 |
| 20260906023108 | 76 | 360 | 6.0 | 9.0 | 0.00 | 0.00 | 0.00 | 36 | 1019.6 |
| 20260906021551 | 75 | 360 | 4.0 | 8.0 | 0.00 | 0.00 | 0.00 | 38 | 1019.2 |
| 20260906020055 | 76 | 360 | 5.0 | 8.0 | 0.00 | 0.00 | 0.00 | 36 | 1019.0 |
| 20260906014552 | 76 | 360 | 6.0 | 9.0 | 0.00 | 0.00 | 0.00 | 36 | 1019.1 |
| 20260906013044 | 77 | 360 | 4.0 | 6.0 | 0.00 | 0.00 | 0.00 | 35 | 1018.8 |
| 20260906011603 | 81 | 360 | 5.0 | 10.0 | 0.00 | 0.00 | 0.00 | 31 | 1018.8 |
| 20260906010053 | 84 | 1 | 6.0 | 9.0 | 0.00 | 0.00 | 0.00 | 28 | 1018.7 |
| 20260906004555 | 87 | 1 | 5.0 | 10.0 | 0.00 | 0.00 | 0.00 | 27 | 1018.9 |
| 20260906003056 | 88 | 1 | 5.0 | 12.0 | 0.00 | 0.00 | 0.00 | 25 | 1018.8 |
| 20260906001554 | 90 | 1 | 3.0 | 7.0 | 0.00 | 0.00 | 0.00 | 23 | 1018.6 |
| 20260906000059 | 91 | 0 | 1.0 | 4.0 | 0.00 | 0.00 | 0.00 | 23 | 1018.5 |
| 20260905234547 | 90 | 0 | 0.0 | 2.0 | 0.00 | 0.00 | 0.00 | 24 | 1018.3 |
| 20260905233056 | 90 | 1 | 1.0 | 5.0 | 0.00 | 0.00 | 0.00 | 24 | 1018.3 |
| 20260905231556 | 90 | 1 | 1.0 | 9.0 | 0.00 | 0.00 | 0.00 | 23 | 1018.3 |
| 20260905230048 | 91 | 1 | 1.0 | 7.0 | 0.00 | 0.00 | 0.00 | 23 | 1018.3 |
| 20260905224541 | 89 | 1 | 2.0 | 8.0 | 0.00 | 0.00 | 0.00 | 24 | 1018.3 |
| 20260905223049 | 90 | 1 | 4.0 | 10.0 | 0.00 | 0.00 | 0.00 | 23 | 1018.5 |
| 20260905221558 | 92 | 1 | 4.0 | 8.0 | 0.00 | 0.00 | 0.00 | 23 | 1018.4 |
| 20260905220053 | 94 | 0 | 2.0 | 6.0 | 0.00 | 0.00 | 0.00 | 21 | 1018.5 |
| 20260905214546 | 94 | 1 | 4.0 | 12.0 | 0.00 | 0.00 | 0.00 | 21 | 1018.9 |
| 20260905213054 | 94 | 1 | 7.0 | 15.0 | 0.00 | 0.00 | 0.00 | 20 | 1018.8 |
| 20260905211555 | 94 | 0 | 2.0 | 7.0 | 0.00 | 0.00 | 0.00 | 20 | 1018.7 |